Home > Weather > Modena > Past weeks

Flag for Italy Past Weather in Modena, Italy — Yesterday and Last 2 Weeks

Now
82 °F

Passing clouds.


Feels Like: 81 °F
Forecast: 64 / 89 °F
Wind: 10 mph from Southeast

Location: Bologna / Borgo Panigale

Current Time: Jun 28, 2016 at 1:38:04 PM

Latest Report: Jun 28, 2016 at 12:50 PM


Visibility: N/A

Pressure: 30.04 "Hg

Humidity: 37%

Dew Point: 54 °F

Location of ModenaLocation

Past Weather in Modena — Graph

°F

Modena Temperature Yesterday

Maximum temperature yesterday: 88 °F (at 10:50 AM)
Minimum temperature yesterday: 63 °F (at 5:50 AM)
Average temperature yesterday: 76 °F

High & Low Weather Summary for the Past Weeks

 TemperatureHumidityPressure
High95 °F (Jun 25, 2:50 PM)94% (Jun 14, 9:50 AM)30.21 "Hg (Jun 14, 9:50 AM)
Low55 °F (Jun 18, 4:20 AM)30% (Jun 17, 2:50 PM)29.50 "Hg (Jun 14, 8:50 PM)
Average74 °F61%29.91 "Hg
* Reported Jun 13 12:20 PM — Jun 28 12:20 PM, Modena, Weather by CustomWeather, © 2016

Note: Actual official high and low records may vary slightly from our data, if they occured in-between our weather recording intervals... More about our weather records

Advertising

Modena Weather History for the Previous 24 Hours

Scroll right to see more
 ConditionsComfort  
Time TempWeatherWind HumidityBarometerVisibility
12:20 PM
Tue, Jun 28
82 °FPassing clouds.10 mph42%30.04 "HgN/A
11:50 AM81 °FPassing clouds.9 mph42%30.07 "HgN/A
11:20 AM81 °FPassing clouds.9 mph45%30.07 "HgN/A
10:50 AM81 °FPassing clouds.8 mph45%30.07 "HgN/A
10:20 AM79 °FPassing clouds.8 mph48%30.07 "HgN/A
9:50 AM77 °FPassing clouds.5 mph61%30.07 "HgN/A
9:20 AM75 °FSunny.3 mph65%30.07 "Hg10 mi
8:50 AM75 °FSunny.2 mph69%30.07 "Hg10 mi
8:20 AM73 °FSunny.1 mph69%30.07 "Hg10 mi
7:50 AM72 °FPassing clouds.3 mph73%30.07 "HgN/A
7:20 AM70 °FPassing clouds.3 mph78%30.07 "HgN/A
6:50 AM68 °FPassing clouds.3 mph78%30.07 "HgN/A
6:20 AM66 °FClear.5 mph83%30.07 "Hg10 mi
5:50 AM64 °FClear.5 mph88%30.07 "Hg10 mi
5:20 AM64 °FClear.3 mph88%30.07 "Hg10 mi
4:50 AM64 °FClear.1 mph88%30.04 "Hg10 mi
3:50 AM66 °FPassing clouds.6 mph88%30.04 "HgN/A
2:50 AM68 °FPassing clouds.3 mph78%30.04 "HgN/A
1:50 AM68 °FClear.No wind83%30.04 "Hg10 mi
1:20 AM68 °FClear.2 mph83%30.04 "Hg10 mi
12:50 AM70 °FClear.1 mph78%30.01 "Hg10 mi
12:20 AM68 °FClear.2 mph83%30.01 "Hg10 mi
11:50 PM
Mon, Jun 27
70 °FClear.2 mph83%30.01 "Hg10 mi
11:20 PM72 °FClear.3 mph78%30.01 "Hg10 mi
10:50 PM72 °FClear.3 mph78%30.01 "Hg10 mi
10:20 PM73 °FClear.6 mph74%29.98 "Hg10 mi
9:50 PM73 °FSunny.6 mph69%29.98 "Hg10 mi
9:20 PM75 °FSunny.6 mph61%29.98 "Hg10 mi
8:50 PM77 °FSunny.7 mph57%29.95 "Hg10 mi
8:20 PM77 °FSunny.8 mph57%29.95 "Hg10 mi
7:50 PM79 °FPassing clouds.8 mph54%29.95 "HgN/A
7:20 PM79 °FPassing clouds.8 mph54%29.95 "HgN/A
6:50 PM81 °FPassing clouds.9 mph51%29.92 "HgN/A
6:20 PM81 °FPassing clouds.9 mph51%29.92 "HgN/A
5:50 PM81 °FPassing clouds.10 mph51%29.92 "HgN/A
5:20 PM82 °FScattered clouds.10 mph48%29.92 "HgN/A
4:50 PM82 °FScattered clouds.10 mph48%29.92 "HgN/A
4:20 PM84 °FScattered clouds.6 mph45%29.92 "HgN/A
3:50 PM84 °FScattered clouds.6 mph45%29.92 "HgN/A
3:20 PM82 °FScattered clouds.6 mph48%29.92 "HgN/A
2:50 PM86 °FPassing clouds.6 mph40%29.92 "HgN/A
2:20 PM84 °FPassing clouds.6 mph45%29.92 "HgN/A
1:50 PM84 °FPassing clouds.6 mph45%29.92 "HgN/A
1:20 PM82 °FPassing clouds.7 mph45%29.92 "HgN/A
Weather by CustomWeather, © 2016

See weather overviewHow to use our weather pages